Lihue, HI

3:50 AM HST on April 30, 2017 (GMT -1000)
Lihue

Weather History for PHLI - April, 2014

Change the Weather History Date:

Tuesday, April 22, 2014

  Actual Average Record
Temperature  
Mean Temperature 76 °F 74 °F  
Max Temperature 81 °F 79 °F 85 °F (1981)
Min Temperature 71 °F 69 °F 56 °F (1958)
Degree Days  
Heating Degree Days 0 0  
Month to date heating degree days 0 0  
Since 1 July heating degree days 0 0  
Cooling Degree Days 11 9  
Month to date cooling degree days 212 197  
Year to date cooling degree days 799 831  
Growing Degree Days 26 (Base 50)    
Moisture  
Dew Point 69 °F    
Average Humidity 81    
Maximum Humidity 93    
Minimum Humidity 69    
Precipitation  
Precipitation 0.02 in 0.05 in 1.27 in (1954)
Month to date precipitation 0.34 1.75  
Year to date precipitation 12.67 13.27  
Snow  
Snow 0.00 in - - ()
Month to date snowfall 0.0  
Since 1 July snowfall 0.0  
Snow Depth 0.00 in    
Sea Level Pressure  
Sea Level Pressure 30.13 in    
Wind  
Wind Speed 16 mph (NE)    
Max Wind Speed 22 mph    
Max Gust Speed 26 mph    
Visibility 10 miles    
Events Rain    
T = Trace of Precipitation, MM = Missing Value Source: NWS Daily Summary

Daily Weather History Graph

Daily Weather History Graph

Search for Another Location

Airport or City:

Trip Planner

Search our weather history database for the weather conditions in past years. The results will help you decide how hot, cold, wet, or windy it might be!

Date:

Astronomy

Apr. 22, 2014 Rise Set
Actual Time 6:11 AM HST 6:59 PM HST
Civil Twilight 5:48 AM HST 7:23 PM HST
Nautical Twilight 5:21 AM HST 7:50 PM HST
Astronomical Twilight 4:54 AM HST 8:17 PM HST
Moon 1:20 AM HST (4/22) 1:01 PM HST (4/22)
Length of Visible Light 13h 34m
Length of Day
12h 48m
Last Quarter, 43% of the Moon is Illuminated
Apr 22
Last Quarter
Apr 28
New
May 6
First Quarter
May 14
Full
May 21
Last Quarter

Hourly Weather History & Observations

Time (HST) Temp. Heat Index Dew Point Humidity Pressure Visibility Wind Dir Wind Speed Gust Speed Precip Events Conditions
12:01 AM 73.4 °F - 69.8 °F 88% 30.18 in 10.0 mi NE 16.1 mph - N/A   Mostly Cloudy
12:11 AM 73.4 °F - 69.8 °F 88% 30.17 in 8.0 mi NE 17.3 mph - N/A   Mostly Cloudy
12:53 AM 72.9 °F - 69.1 °F 88% 30.15 in 10.0 mi NE 16.1 mph - 0.00 in   Overcast
1:53 AM 73.0 °F - 69.1 °F 87% 30.14 in 10.0 mi NE 16.1 mph - 0.01 in   Overcast
2:53 AM 72.5 °F - 69.1 °F 89% 30.13 in 6.0 mi NNE 16.1 mph - 0.00 in Rain Light Rain
3:29 AM 73.4 °F - 69.8 °F 88% 30.13 in 10.0 mi NE 16.1 mph - 0.00 in   Overcast
3:53 AM 72.7 °F - 69.1 °F 88% 30.12 in 10.0 mi NE 13.8 mph - 0.00 in   Overcast
4:48 AM 73.4 °F - 69.8 °F 88% 30.12 in 10.0 mi NE 16.1 mph - 0.00 in   Scattered Clouds
4:53 AM 72.5 °F - 69.1 °F 89% 30.11 in 10.0 mi NE 17.3 mph - 0.00 in   Scattered Clouds
5:43 AM 71.6 °F - 69.8 °F 94% 30.13 in 9.0 mi NE 17.3 mph - 0.00 in   Overcast
5:53 AM 71.6 °F - 70.0 °F 95% 30.13 in 10.0 mi ENE 15.0 mph - 0.00 in   Overcast
6:07 AM 71.6 °F - 69.8 °F 94% 30.14 in 6.0 mi East 18.4 mph 26.5 mph 0.00 in Rain Light Rain
6:23 AM 71.6 °F - 69.8 °F 94% 30.14 in 10.0 mi ENE 12.7 mph - 0.00 in   Mostly Cloudy
6:33 AM 71.6 °F - 69.8 °F 94% 30.14 in 10.0 mi ENE 15.0 mph - 0.00 in   Mostly Cloudy
6:53 AM 72.0 °F - 70.0 °F 93% 30.14 in 10.0 mi NE 16.1 mph - 0.00 in   Overcast
7:04 AM 71.6 °F - 69.8 °F 94% 30.15 in 10.0 mi ENE 15.0 mph - N/A   Overcast
7:53 AM 71.6 °F - 70.0 °F 95% 30.16 in 10.0 mi NE 13.8 mph - N/A   Overcast
8:00 AM 71.6 °F - 69.8 °F 94% 30.16 in 10.0 mi NE 15.0 mph - N/A   Overcast
8:51 AM 71.6 °F - 69.8 °F 94% 30.18 in 10.0 mi NE 15.0 mph - N/A   Overcast
8:53 AM 71.6 °F - 70.0 °F 95% 30.17 in 10.0 mi NE 15.0 mph - N/A   Overcast
9:49 AM 75.2 °F - 71.6 °F 89% 30.18 in 10.0 mi ENE 10.4 mph - 0.01 in   Mostly Cloudy
9:53 AM 75.9 °F - 72.0 °F 87% 30.17 in 10.0 mi ENE 15.0 mph - 0.01 in   Mostly Cloudy
10:48 AM 77.0 °F - 68.0 °F 74% 30.18 in 10.0 mi ENE 16.1 mph 21.9 mph N/A   Mostly Cloudy
10:53 AM 77.0 °F - 69.1 °F 76% 30.17 in 10.0 mi ENE 15.0 mph - N/A   Mostly Cloudy
11:53 AM 79.0 °F - 71.1 °F 77% 30.15 in 10.0 mi NE 16.1 mph - N/A   Clear
12:53 PM 80.1 °F 83.2 °F 70.0 °F 71% 30.13 in 10.0 mi NE 18.4 mph - N/A   Partly Cloudy
1:13 PM 78.8 °F - 69.8 °F 74% 30.13 in 10.0 mi NE 17.3 mph - N/A   Mostly Cloudy
1:46 PM 78.8 °F - 69.8 °F 74% 30.12 in 10.0 mi NE 20.7 mph - N/A   Mostly Cloudy
1:53 PM 77.0 °F - 68.0 °F 74% 30.10 in 10.0 mi NE 21.9 mph - N/A   Mostly Cloudy
2:04 PM 75.2 °F - 68.0 °F 78% 30.11 in 10.0 mi NE 17.3 mph - N/A   Mostly Cloudy
2:13 PM 75.2 °F - 68.0 °F 78% 30.11 in 10.0 mi NE 19.6 mph - N/A   Mostly Cloudy
2:20 PM 75.2 °F - 68.0 °F 78% 30.10 in 10.0 mi NE 17.3 mph - N/A   Scattered Clouds
2:44 PM 78.8 °F - 69.8 °F 74% 30.10 in 10.0 mi NE 17.3 mph - N/A   Mostly Cloudy
2:53 PM 79.0 °F - 69.1 °F 72% 30.09 in 10.0 mi NE 18.4 mph - N/A   Mostly Cloudy
3:41 PM 77.0 °F - 69.8 °F 78% 30.09 in 10.0 mi NNE 15.0 mph - N/A   Mostly Cloudy
3:53 PM 77.0 °F - 69.1 °F 76% 30.08 in 10.0 mi NNE 15.0 mph - N/A   Mostly Cloudy
4:48 PM 75.2 °F - 66.2 °F 73% 30.08 in 9.0 mi NE 13.8 mph - N/A   Mostly Cloudy
4:53 PM 75.9 °F - 68.0 °F 76% 30.07 in 9.0 mi NE 16.1 mph 23.0 mph N/A   Scattered Clouds
5:53 PM 75.9 °F - 68.0 °F 76% 30.08 in 9.0 mi NNE 15.0 mph - N/A   Mostly Cloudy
6:04 PM 75.2 °F - 68.0 °F 78% 30.09 in 8.0 mi NE 15.0 mph 21.9 mph N/A   Mostly Cloudy
6:23 PM 75.2 °F - 68.0 °F 78% 30.09 in 7.0 mi NE 17.3 mph - N/A   Mostly Cloudy
6:32 PM 75.2 °F - 68.0 °F 78% 30.09 in 8.0 mi NE 17.3 mph - N/A   Mostly Cloudy
6:53 PM 73.9 °F - 68.0 °F 82% 30.09 in 8.0 mi NE 18.4 mph - N/A   Mostly Cloudy
7:06 PM 73.4 °F - 68.0 °F 83% 30.10 in 8.0 mi NE 17.3 mph - N/A   Mostly Cloudy
7:14 PM 73.4 °F - 68.0 °F 83% 30.10 in 9.0 mi NE 17.3 mph - N/A   Mostly Cloudy
7:53 PM 73.9 °F - 68.0 °F 82% 30.12 in 10.0 mi NE 18.4 mph - N/A   Mostly Cloudy
8:53 PM 73.9 °F - 66.9 °F 79% 30.13 in 10.0 mi NE 10.4 mph - N/A   Mostly Cloudy
9:53 PM 73.9 °F - 68.0 °F 82% 30.14 in 10.0 mi NE 15.0 mph - 0.00 in   Mostly Cloudy
10:53 PM 73.0 °F - 68.0 °F 84% 30.14 in 10.0 mi NE 15.0 mph - N/A   Clear
11:53 PM 73.0 °F - 69.1 °F 87% 30.14 in 8.0 mi NE 12.7 mph - 0.00 in Rain Light Rain